Regional Weather Roundup
Issued by NWS

Home | Current Version | Previous Version | Graphics & Text | Print | Product List | Glossary On
Versions: 1 2 3 4 5 6 7 8 9 10 11 12 13 14 15 16 17 18 19 20 21 22 23 24 25 26 27 28 29 30 31 32 33 34 35 36 37 38 39 40 41 42 43 44 45 46 47 48 49 50
000
ASUS43 KOAX 041210
RWRNE

WEATHER ROUNDUP FOR NEBRASKA
NATIONAL WEATHER SERVICE OMAHA NE
700 AM CDT TUE AUG 04 2015

NOTES: SATELLITE DATA IS BEING USED TO AUGMENT CLOUD COVER ABOVE
       12000 FEET.
       "FAIR" INDICATES FEW OR NO CLOUDS BELOW 12,000 FEET WITH NO
       SIGNIFICANT WEATHER AND/OR OBSTRUCTIONS TO VISIBILITY.

  * THESE STATIONS DO NOT REPORT WEATHER SUCH AS RAIN...SNOW OR FOG.

NEZ001>004-019>022-054>056-041300-
NEBRASKA PANHANDLE

CITY           SKY/WX    TMP DP  RH WIND       PRES   REMARKS
SCOTTSBLUFF    PTCLDY    58  54  86 CALM      29.97R
6HR MIN TEMP:  58; 6HR MAX TEMP:  74;

ALLIANCE       PTCLDY    56  52  86 E6        29.97R
6HR MIN TEMP:  54; 6HR MAX TEMP:  71;

CHADRON        PTCLDY    57  54  89 W9        29.95R
6HR MIN TEMP:  56; 6HR MAX TEMP:  69;

KIMBALL        CLEAR     55  50  83 CALM      30.01R
SIDNEY         PTCLDY    57  51  80 W3        30.00R
6HR MIN TEMP:  53; 6HR MAX TEMP:  64;

$$

NEZ057>060-069>072-079>082-041300-
SOUTHWEST NEBRASKA

CITY           SKY/WX    TMP DP  RH WIND       PRES   REMARKS
NORTH PLATTE   CLOUDY    67  66  97 E9        29.99R FOG
6HR MIN TEMP:  65; 6HR MAX TEMP:  70;

IMPERIAL       CLOUDY    67  66  97 E6        29.97R FOG
6HR MIN TEMP:  63; 6HR MAX TEMP:  67;

LEXINGTON      CLOUDY    70  68  95 NE12      29.98R FOG
MCCOOK         FOG       67  67 100 CALM      29.94R VSB 1/4
6HR MIN TEMP:  67; 6HR MAX TEMP:  72;

OGALLALA       CLEAR     67  66  98 E6        29.97R FOG
$$

NEZ005>010-023>029-035>040-094-041300-
NORTH CENTRAL NEBRASKA

CITY           SKY/WX    TMP DP  RH WIND       PRES   REMARKS
AINSWORTH      CLOUDY    64  59  83 E9G20     30.05R
BROKEN BOW     CLOUDY    69  63  81 E14G23    30.01R
6HR MIN TEMP:  68; 6HR MAX TEMP:  73;

O`NEILL        CLOUDY    64  63  98 W8        30.07R
ORD            CLOUDY    68  59  73 NE7       30.02R
6HR MIN TEMP:  67; 6HR MAX TEMP:  70;

THEDFORD       CLOUDY    64  64  97 E14       30.03R
$$

NEZ041-046>049-061>064-073>077-083>087-041300-
SOUTH CENTRAL NEBRASKA

CITY           SKY/WX    TMP DP  RH WIND       PRES   REMARKS
GRAND ISLAND   CLOUDY    68  63  84 E15       30.01R
6HR MIN TEMP:  67; 6HR MAX TEMP:  69;

AURORA         CLOUDY    68  66  91 NE13      30.02R
HASTINGS       CLOUDY    67  65  93 NE12      30.00R
6HR MIN TEMP:  67; 6HR MAX TEMP:  71;

HEBRON         MOCLDY    69  67  92 CALM      29.95R
HOLDREGE       FOG       67  66  96 E8        29.97R VSB 1/2
KEARNEY *      CLOUDY    66  64  94 NE14      30.00R
YORK           CLOUDY    68  66  94 N8        30.03R
$$

NEZ011>018-030>034-042>045-041300-
NORTHEAST NEBRASKA

CITY           SKY/WX    TMP DP  RH WIND       PRES   REMARKS
NORFOLK        LGT RAIN  65  64  97 NE6       29.99F
6HR MIN TEMP:  65; 6HR MAX TEMP:  69; 6HR PCP:  0.26;

ALBION         CLOUDY    63  62  94 NW9       30.01R
BLAIR          LGT RAIN  66  62  86 E5        30.01R
COLUMBUS *     CLOUDY    64  57  77 CALM      30.04R
FREMONT        LGT RAIN  68  65  89 N3        30.01S
TEKAMAH        LGT RAIN  67  64  90 E3        30.01S
6HR MIN TEMP:  67; 6HR MAX TEMP:  71; 6HR PCP:  0.01;

WAYNE          CLOUDY    67  63  89 CALM      30.02R
$$

NEZ050>053-065>068-078-088>093-041300-
SOUTHEAST NEBRASKA

CITY           SKY/WX    TMP DP  RH WIND       PRES   REMARKS
LINCOLN        CLOUDY    71  63  75 SE9       29.97F
6HR MIN TEMP:  68; 6HR MAX TEMP:  74;

OMAHA EPPLEY   TSTM      68  65  90 N5        30.02R
6HR MIN TEMP:  68; 6HR MAX TEMP:  73; 6HR PCP:  0.01;

BEATRICE       CLOUDY    70  67  93 NE6       29.97R
FALLS CITY     CLEAR     69  67  93 SE6       29.94F
6HR MIN TEMP:  69; 6HR MAX TEMP:  72; 6HR PCP: TRACE;

NEBRASKA CITY  MOCLDY    67  65  94 N6        29.98R
PLATTSMOUTH    TSTM      65  63  93 E8        30.01R
$$

NEZ044-045-051>053-067-041300-
OMAHA AREA

CITY           SKY/WX    TMP DP  RH WIND       PRES   REMARKS
OMAHA EPPLEY   TSTM      68  65  90 N5        30.02R
6HR MIN TEMP:  68; 6HR MAX TEMP:  73; 6HR PCP:  0.01;

BLAIR          LGT RAIN  66  62  86 E5        30.01R
FREMONT        LGT RAIN  68  65  89 N3        30.01S
MILLARD        CLOUDY    69  64  85 CALM      29.99F
OFFUTT AFB     TSTM      67  63  87 E7        30.00R
PLATTSMOUTH    TSTM      65  63  93 E8        30.01R
WAHOO          LGT RAIN  66  65  95 CALM      30.03R
$$



USA.gov is the U.S. government's official web portal to all federal, state and local government web resources and services.